Weather History for Arctic Village, AK

Change the Weather History Date:

Monday, October 29, 2012

  Actual Average Record
Temperature  
Mean Temperature 5 °F -  
Max Temperature 14 °F 12 °F 30 °F (2013)
Min Temperature -4 °F -11 °F -21 °F (1989)
Degree Days  
Heating Degree Days 60    
Moisture  
Dew Point 4 °F    
Average Humidity 84    
Maximum Humidity 100    
Minimum Humidity 52    
Precipitation  
Precipitation 0.00 in - - ()
Sea Level Pressure  
Sea Level Pressure 29.81 in    
Wind  
Wind Speed 1 mph (SW)    
Max Wind Speed 5 mph    
Max Gust Speed -    
Visibility 10 miles    
Events      
Averages and records for this station are not official NWS values.
T = Trace of Precipitation, MM = Missing Value Source: NWS Daily Summary

Daily Weather History Graph

Daily Weather History Graph

Search for Another Location

Airport:

Trip Planner

Search our weather history database for the weather conditions in past years. The results will help you decide how hot, cold, wet, or windy it might be!

Date:

Astronomy

Oct. 29, 2012 Rise Set
Actual Time 9:44 AM AKDT 5:05 PM AKDT
Civil Twilight 8:40 AM AKDT 6:09 PM AKDT
Nautical Twilight 7:33 AM AKDT 7:16 PM AKDT
Astronomical Twilight 6:28 AM AKDT 8:21 PM AKDT
Moon 4:32 PM AKDT (10/29) 10:09 AM AKDT (10/29)
Length of Visible Light 9h 29m
Length of Day
7h 21m
Full, 100% of the Moon is Illuminated
Oct 29
Full
Nov 6
Last Quarter
Nov 13
New
Nov 20
First Quarter
Nov 28
Full

Hourly Weather History & Observations

Time (AKDT) Temp. Windchill Dew Point Humidity Pressure Visibility Wind Dir Wind Speed Gust Speed Precip Events Conditions
12:16 AM 12.2 °F - 6.8 °F 79% 29.87 in 10.0 mi Calm Calm - N/A   Overcast
12:36 AM 14.0 °F - 8.6 °F 79% 29.86 in 5.0 mi Calm Calm - N/A   Overcast
12:56 AM 14.0 °F - 8.6 °F 79% 29.86 in 9.0 mi Calm Calm - N/A   Overcast
1:16 AM 14.0 °F - 10.4 °F 86% 29.85 in 7.0 mi Calm Calm - N/A   Overcast
1:36 AM 12.2 °F - 10.4 °F 92% 29.84 in 10.0 mi Calm Calm - N/A   Overcast
1:56 AM 12.2 °F - 10.4 °F 92% 29.83 in 10.0 mi Calm Calm - N/A   Overcast
2:16 AM 12.2 °F 4.3 °F 10.4 °F 92% 29.82 in 10.0 mi WSW 4.6 mph - N/A   Mostly Cloudy
2:36 AM 12.2 °F 6.1 °F 8.6 °F 85% 29.82 in 10.0 mi West 3.5 mph - N/A   Mostly Cloudy
2:56 AM 12.2 °F - 6.8 °F 79% 29.81 in 10.0 mi Calm Calm - N/A   Scattered Clouds
3:16 AM 12.2 °F - 6.8 °F 79% 29.81 in 10.0 mi Calm Calm - N/A   Partly Cloudy
3:36 AM 8.6 °F 0.1 °F 6.8 °F 92% 29.81 in 10.0 mi SSE 4.6 mph - N/A   Mostly Cloudy
3:56 AM 12.2 °F 6.1 °F 10.4 °F 92% 29.80 in 10.0 mi SSE 3.5 mph - N/A   Mostly Cloudy
4:16 AM 12.2 °F 6.1 °F 12.2 °F 100% 29.79 in 10.0 mi South 3.5 mph - N/A   Scattered Clouds
4:36 AM 10.4 °F - 6.8 °F 85% 29.79 in 10.0 mi Calm Calm - N/A   Mostly Cloudy
4:56 AM 8.6 °F 2.0 °F 6.8 °F 92% 29.79 in 10.0 mi WSW 3.5 mph - N/A   Overcast
5:16 AM 10.4 °F 4.0 °F 8.6 °F 92% 29.78 in 10.0 mi SW 3.5 mph - N/A   Overcast
5:36 AM 10.4 °F - 6.8 °F 85% 29.78 in 10.0 mi Calm Calm - N/A   Overcast
5:56 AM 10.4 °F 4.0 °F 8.6 °F 92% 29.77 in 10.0 mi SSW 3.5 mph - N/A   Overcast
6:16 AM 10.4 °F - 8.6 °F 92% 29.77 in 10.0 mi Calm Calm - N/A   Overcast
6:36 AM 8.6 °F - 3.2 °F 79% 29.77 in 10.0 mi Calm Calm - N/A   Overcast
6:56 AM 8.6 °F - 3.2 °F 79% 29.77 in 10.0 mi Calm Calm - N/A   Overcast
7:16 AM 8.6 °F - 5.0 °F 85% 29.77 in 10.0 mi Calm Calm - N/A   Overcast
7:36 AM 8.6 °F - 6.8 °F 92% 29.77 in 10.0 mi Calm Calm - N/A   Overcast
7:56 AM 8.6 °F - 8.6 °F 100% 29.77 in 10.0 mi Calm Calm - N/A   Overcast
8:16 AM 8.6 °F - 6.8 °F 92% 29.77 in 10.0 mi Calm Calm - N/A   Overcast
8:36 AM 8.6 °F - 6.8 °F 92% 29.77 in 10.0 mi Calm Calm - N/A   Overcast
8:56 AM 8.6 °F - 8.6 °F 100% 29.77 in 10.0 mi Calm Calm - N/A   Overcast
9:36 AM 8.6 °F - 5.0 °F 85% 29.77 in 10.0 mi Calm Calm - N/A   Scattered Clouds
9:56 AM 8.6 °F - 3.2 °F 79% 29.77 in 10.0 mi Calm Calm - N/A   Clear
10:16 AM 6.8 °F - 3.2 °F 85% 29.77 in 10.0 mi Calm Calm - N/A   Clear
10:36 AM 6.8 °F - 3.2 °F 85% 29.77 in 10.0 mi Calm Calm - N/A   Mostly Cloudy
10:56 AM 8.6 °F - 3.2 °F 79% 29.78 in 10.0 mi Calm Calm - N/A   Overcast
11:16 AM 8.6 °F - 6.8 °F 92% 29.77 in 10.0 mi Calm Calm - N/A   Mostly Cloudy
11:36 AM 6.8 °F - - N/A% 29.78 in 10.0 mi Calm Calm - N/A   Mostly Cloudy
11:56 AM 6.8 °F -2.0 °F - N/A% 29.78 in 10.0 mi NW 4.6 mph - N/A   Overcast
12:16 PM 6.8 °F - -0.4 °F 72% 29.78 in 10.0 mi Calm Calm - N/A   Overcast
12:36 PM 8.6 °F - -5.8 °F 52% 29.78 in 10.0 mi Calm Calm - N/A   Overcast
12:56 PM 6.8 °F - -2.2 °F 67% 29.78 in 10.0 mi Calm Calm - N/A   Overcast
1:16 PM 8.6 °F - -0.4 °F 67% 29.78 in 10.0 mi Calm Calm - N/A   Mostly Cloudy
1:36 PM 8.6 °F - 8.6 °F 100% 29.79 in 10.0 mi Calm Calm - N/A   Mostly Cloudy
1:56 PM 8.6 °F - - N/A% 29.79 in 10.0 mi Calm Calm - N/A   Mostly Cloudy
2:16 PM 8.6 °F - 6.8 °F 92% 29.79 in 10.0 mi Calm Calm - N/A   Partly Cloudy
2:36 PM 8.6 °F - 1.4 °F 73% 29.79 in 10.0 mi Calm Calm - N/A   Clear
2:56 PM 8.6 °F - 1.4 °F 73% 29.79 in 10.0 mi Calm Calm - N/A   Mostly Cloudy
3:16 PM 10.4 °F - 8.6 °F 92% 29.79 in 10.0 mi Calm Calm - N/A   Overcast
3:36 PM 8.6 °F - 3.2 °F 79% 29.79 in 10.0 mi Calm Calm - N/A   Overcast
3:56 PM 8.6 °F - 6.8 °F 92% 29.80 in 10.0 mi Calm Calm - N/A   Overcast
4:16 PM 10.4 °F - 10.4 °F 100% 29.80 in 10.0 mi Calm Calm - N/A   Overcast
4:36 PM 8.6 °F - 5.0 °F 85% 29.81 in 10.0 mi Calm Calm - N/A   Overcast
4:56 PM 8.6 °F - 3.2 °F 79% 29.81 in 10.0 mi Calm Calm - N/A   Overcast
5:16 PM 6.8 °F -2.0 °F -2.2 °F 67% 29.81 in 10.0 mi NW 4.6 mph - N/A   Overcast
5:36 PM 10.4 °F 4.0 °F -0.4 °F 62% 29.81 in 10.0 mi WNW 3.5 mph - N/A   Overcast
6:16 PM 8.6 °F 2.0 °F 1.4 °F 73% 29.82 in 10.0 mi South 3.5 mph - N/A   Overcast
6:36 PM 6.8 °F -0.1 °F 1.4 °F 79% 29.82 in 10.0 mi SSW 3.5 mph - N/A   Overcast
6:56 PM 6.8 °F - 3.2 °F 85% 29.82 in 10.0 mi Calm Calm - N/A   Overcast
7:16 PM 6.8 °F -0.1 °F 6.8 °F 100% 29.82 in 10.0 mi West 3.5 mph - N/A   Overcast
7:36 PM 6.8 °F - 6.8 °F 100% 29.83 in 10.0 mi Calm Calm - N/A   Overcast
7:56 PM 8.6 °F - 8.6 °F 100% 29.83 in 10.0 mi Calm Calm - N/A   Overcast
8:16 PM 6.8 °F - 6.8 °F 100% 29.84 in 10.0 mi Calm Calm - N/A   Mostly Cloudy
8:36 PM 3.2 °F -4.2 °F -9.4 °F 56% 29.84 in 10.0 mi SSE 3.5 mph - N/A   Mostly Cloudy
8:56 PM 6.8 °F - -0.4 °F 72% 29.84 in 10.0 mi Calm Calm - N/A   Scattered Clouds
9:16 PM 3.2 °F - - N/A% 29.85 in 10.0 mi Calm Calm - N/A   Clear
9:36 PM 5.0 °F - 1.4 °F 85% 29.86 in 10.0 mi Calm Calm - N/A   Clear
9:56 PM 1.4 °F - -7.6 °F 66% 29.86 in 10.0 mi Calm Calm - N/A   Clear
10:16 PM -0.4 °F - -0.4 °F 100% 29.86 in 10.0 mi Calm Calm - N/A   Partly Cloudy
10:36 PM 1.4 °F - 1.4 °F 100% 29.87 in 10.0 mi Calm Calm - N/A   Scattered Clouds
10:56 PM 3.2 °F - -9.4 °F 56% 29.87 in 10.0 mi Calm Calm - N/A   Clear
11:16 PM -0.4 °F - -7.6 °F 72% 29.87 in 10.0 mi Calm Calm - N/A   Clear
11:36 PM -4.0 °F - -4.0 °F 100% 29.88 in 10.0 mi Calm Calm - N/A   Scattered Clouds
11:56 PM -2.2 °F - -11.2 °F 66% 29.88 in 10.0 mi Calm Calm - N/A   Scattered Clouds